Torna al catalogo

STARLINK-32041

AttivoComunicazioniVLEO
NORAD 60202·PAYLOAD·🇺🇸 United States

Lanciato Jul 3, 2024 da Cape Canaveral Space Force Station

Loading…

Prossimi Passaggi (prossime 24 ore)

TLE

AggiornatoSource: CelesTrak SupGP

Epoca: Sep 15, 2026, 02:07 UTC

1 60202C 24124V   26258.08868056 -.00035695  00000+0 -11478-2 0  2587
2 60202  53.1569 161.4212 0001308  89.1200 225.4952 15.31720316    19

Traccia STARLINK-32041 in tempo reale con AllMySat

Download on the App Store